GW4883 Weather Reports


time (UTC)temp
C
wind
direction
speed
KPH
gust
KPH
rain 1hr
cm
rain 24hr
cm
rain mn
cm
humidity
%
barometer
mb
20260506161507 11 28 4.8 19.3 0.00 0.03 0.03 85 1015.0
20260506161003 11 360 6.4 19.3 0.00 0.03 0.03 85 1014.7
20260506160505 11 5 9.7 16.1 0.00 0.03 0.03 85 1014.5
20260506160010 11 28 4.8 16.1 0.00 0.03 0.03 86 1014.7
20260506155503 11 352 3.2 16.1 0.00 0.03 0.03 86 1014.9
20260506155009 11 360 3.2 12.9 0.00 0.03 0.03 86 1014.7
20260506154524 11 347 6.4 19.3 0.03 0.03 0.03 86 1014.4
20260506154007 11 13 8.0 19.3 0.03 0.03 0.03 87 1014.2
20260506153507 11 329 8.0 20.9 0.03 0.03 0.03 87 1014.4
20260506153022 11 343 6.4 20.9 0.03 0.03 0.03 87 1014.4
20260506152501 11 360 8.0 17.7 0.03 0.03 0.03 87 1014.5
20260506152001 11 12 6.4 17.7 0.03 0.03 0.03 87 1014.6
20260506151504 11 352 6.4 16.1 0.03 0.03 0.03 88 1014.9
20260506151002 11 26 8.0 16.1 0.03 0.03 0.03 88 1014.6
20260506150503 10 347 6.4 14.5 0.03 0.03 0.03 88 1014.9
20260506150012 10 5 6.4 12.9 0.03 0.03 0.03 87 1014.9
20260506145505 10 17 6.4 12.9 0.03 0.03 0.03 87 1015.2
20260506145005 10 9 6.4 12.9 0.03 0.03 0.03 87 1015.3
20260506144516 10 5 6.4 12.9 0.00 0.00 0.00 86 1015.7
20260506144013 10 360 4.8 8.0 0.00 0.00 0.00 86 1016.3
20260506143507 10 338 1.6 6.4 0.00 0.00 0.00 86 1016.7
20260506143021 10 282 1.6 6.4 0.00 0.00 0.00 86 1016.6
20260506142506 10 312 0.0 12.9 0.00 0.00 0.00 86 1016.5
20260506142011 10 283 0.0 12.9 0.00 0.00 0.00 86 1016.7
20260506141504 10 286 4.8 14.5 0.00 0.00 0.00 86 1016.0
20260506141003 10 319 4.8 14.5 0.00 0.00 0.00 85 1014.7
20260506140501 10 338 4.8 16.1 0.00 0.00 0.00 85 1014.4
20260506140008 10 350 6.4 16.1 0.00 0.00 0.00 84 1014.0
20260506135504 10 360 6.4 17.7 0.00 0.00 0.00 84 1014.8
20260506135007 10 327 6.4 19.3 0.00 0.00 0.00 84 1014.7
20260506134512 10 13 6.4 14.5 0.00 0.00 0.00 84 1014.6
20260506134004 10 40 3.2 12.9 0.00 0.00 0.00 84 1015.4
20260506133507 10 334 6.4 14.5 0.00 0.00 0.00 83 1015.5
20260506133020 10 297 3.2 14.5 0.00 0.00 0.00 84 1015.3
20260506132509 10 328 4.8 12.9 0.00 0.00 0.00 83 1015.4
20260506132009 10 270 6.4 17.7 0.00 0.00 0.00 83 1015.2
20260506131540 10 350 4.8 17.7 0.00 0.00 0.00 83 1014.5
20260506131007 10 5 6.4 16.1 0.00 0.00 0.00 83 1014.2
20260506130509 10 360 6.4 20.9 0.00 0.00 0.00 83 1014.1
20260506130005 10 5 9.7 20.9 0.00 0.00 0.00 83 1014.1
20260506125505 10 360 11.3 20.9 0.00 0.00 0.00 83 1013.7
20260506125003 10 24 8.0 20.9 0.00 0.00 0.00 83 1013.7
20260506124509 10 14 4.8 20.9 0.00 0.00 0.00 82 1013.7
20260506124003 10 12 11.3 20.9 0.00 0.00 0.00 82 1013.3
20260506123503 10 317 9.7 20.9 0.00 0.00 0.00 82 1013.3
20260506123014 10 5 6.4 20.9 0.00 0.00 0.00 82 1013.2
20260506122505 10 336 9.7 20.9 0.00 0.00 0.00 82 1013.2
20260506122007 11 17 8.0 17.7 0.00 0.00 0.00 81 1013.4
20260506121522 11 14 4.8 14.5 0.00 0.00 0.00 81 1013.5
20260506121011 11 10 8.0 16.1 0.00 0.00 0.00 80 1013.3
20260506120509 11 20 4.8 16.1 0.00 0.00 0.00 80 1013.4
20260506120024 11 5 4.8 20.9 0.00 0.00 0.00 80 1013.1
20260506115507 11 331 9.7 20.9 0.00 0.00 0.00 80 1013.3
20260506115003 11 352 6.4 16.1 0.00 0.00 0.00 80 1013.3
20260506114508 11 338 6.4 17.7 0.00 0.00 0.00 80 1013.2
20260506114003 11 336 8.0 20.9 0.00 0.00 0.00 80 1013.4
20260506113504 11 327 8.0 20.9 0.00 0.00 0.00 80 1013.2
20260506113015 11 360 6.4 16.1 0.00 0.00 0.00 80 1013.1
20260506112508 11 298 8.0 14.5 0.00 0.00 0.00 80 1012.9
20260506112006 11 9 6.4 11.3 0.00 0.00 0.00 80 1012.7
20260506111521 11 352 3.2 16.1 0.00 0.00 0.00 80 1012.8
20260506111007 11 311 3.2 16.1 0.00 0.00 0.00 80 1012.6
20260506110508 11 331 3.2 16.1 0.00 0.00 0.00 79 1012.5
20260506110022 12 323 6.4 17.7 0.00 0.00 0.00 79 1012.3
20260506105507 12 297 6.4 16.1 0.00 0.00 0.00 79 1012.3
20260506105007 12 318 3.2 16.1 0.00 0.00 0.00 78 1012.1
20260506104526 12 360 4.8 14.5 0.00 0.00 0.00 78 1012.0
20260506104006 12 348 6.4 17.7 0.00 0.00 0.00 78 1011.8
20260506103506 12 35 8.0 16.1 0.00 0.00 0.00 77 1011.8
20260506103016 13 339 6.4 12.9 0.00 0.00 0.00 78 1011.7
20260506102505 13 290 3.2 16.1 0.00 0.00 0.00 78 1011.7
20260506102006 13 352 6.4 16.1 0.00 0.00 0.00 78 1011.7
20260506101518 13 13 4.8 14.5 0.00 0.00 0.00 78 1011.5
20260506101003 13 360 4.8 9.7 0.00 0.00 0.00 78 1011.4
20260506100508 13 348 1.6 9.7 0.00 0.00 0.00 78 1011.4
20260506100025 13 325 4.8 14.5 0.00 0.00 0.00 78 1011.2
20260506095508 13 13 4.8 14.5 0.00 0.00 0.00 78 1011.1
20260506095008 13 360 4.8 11.3 0.00 0.00 0.00 77 1011.2
20260506094535 13 9 6.4 11.3 0.00 0.00 0.00 77 1011.0
20260506094009 13 298 6.4 9.7 0.00 0.00 0.00 77 1010.8
20260506093511 13 340 3.2 11.3 0.00 0.00 0.00 77 1010.7
20260506093033 13 14 6.4 11.3 0.00 0.00 0.00 76 1010.7
20260506092505 13 11 4.8 12.9 0.00 0.00 0.00 77 1010.8
20260506092009 13 315 3.2 12.9 0.00 0.00 0.00 77 1010.9
20260506091514 13 338 4.8 12.9 0.00 0.00 0.00 77 1010.9
20260506091006 13 360 3.2 12.9 0.00 0.00 0.00 78 1011.0
20260506090505 13 360 3.2 12.9 0.00 0.00 0.00 78 1010.9
20260506090021 13 16 3.2 8.0 0.00 0.00 0.00 78 1010.8
20260506085510 13 21 1.6 9.7 0.00 0.00 0.00 78 1010.7
20260506085006 13 350 3.2 9.7 0.00 0.00 0.00 78 1010.8
20260506084525 13 28 4.8 8.0 0.00 0.00 0.00 78 1010.8
20260506084007 13 22 1.6 8.0 0.00 0.00 0.00 78 1010.8
20260506083504 13 332 3.2 9.7 0.00 0.00 0.00 78 1010.7
20260506083009 13 28 3.2 11.3 0.00 0.00 0.00 78 1010.6
20260506082503 13 360 6.4 12.9 0.00 0.00 0.00 78 1010.5
20260506082003 13 335 8.0 12.9 0.00 0.00 0.00 78 1010.6
20260506081513 13 5 3.2 12.9 0.00 0.00 0.00 79 1010.5
20260506081004 13 298 3.2 9.7 0.00 0.00 0.00 79 1010.4
20260506080503 13 5 6.4 17.7 0.00 0.00 0.00 79 1010.5
20260506073508 14 11 4.8 12.9 0.00 0.00 0.00 80 1010.4
20260506073008 14 331 4.8 12.9 0.00 0.00 0.00 80 1010.6
20260506072504 14 340 1.6 9.7 0.00 0.00 0.00 80 1010.7
20260506072003 14 18 4.8 9.7 0.00 0.00 0.00 80 1010.6
20260506071513 14 12 3.2 8.0 0.00 0.00 0.00 80 1010.6
20260506071007 14 350 4.8 12.9 0.00 0.00 0.00 80 1010.6
20260506070507 14 352 3.2 12.9 0.00 0.00 0.00 80 1010.5
20260506062515 15 52 4.8 11.3 0.00 0.00 0.00 78 1009.5
20260506062011 15 360 6.4 12.9 0.00 0.00 0.00 78 1009.7
20260506061506 15 9 4.8 14.5 0.00 0.00 0.00 78 1009.7
20260506061002 15 329 6.4 16.1 0.00 0.00 0.00 78 1009.9
20260506060505 15 338 6.4 16.1 0.00 0.00 0.00 77 1010.0
20260506051015 15 57 6.4 19.3 0.00 0.00 0.00 75 1010.2
20260506050505 15 24 6.4 19.3 0.00 0.00 0.00 75 1010.1
20260506045007 16 331 4.8 14.5 0.00 0.00 0.00 75 1010.2
20260506044516 16 42 3.2 16.1 0.00 0.00 0.00 74 1010.3
20260506044004 16 350 6.4 16.1 0.00 0.00 0.00 74 1010.2
20260506043506 16 11 8.0 14.5 0.00 0.00 0.00 74 1010.0
20260506043021 16 309 6.4 14.5 0.00 0.00 0.00 74 1010.0
20260506042505 16 315 4.8 14.5 0.00 0.00 0.00 74 1009.9
20260506042012 16 13 8.0 14.5 0.00 0.00 0.00 73 1009.9
20260506041526 16 360 3.2 14.5 0.00 0.00 0.00 73 1010.0
20260506041008 16 11 4.8 14.5 0.00 0.00 0.00 73 1010.0
20260506040508 17 11 6.4 14.5 0.00 0.00 0.00 73 1010.0
20260506040027 17 318 4.8 16.1 0.00 0.00 0.00 73 1010.1
20260506035514 17 352 6.4 16.1 0.00 0.00 0.00 72 1009.9
20260506035003 17 327 4.8 14.5 0.00 0.00 0.00 72 1010.1
20260506034513 17 311 4.8 17.7 0.00 0.00 0.00 72 1009.9
20260506034004 17 336 4.8 17.7 0.00 0.00 0.00 72 1009.9
20260506033506 17 320 8.0 17.7 0.00 0.00 0.00 72 1009.9
20260506033018 17 316 4.8 16.1 0.00 0.00 0.00 72 1009.8
20260506032505 17 325 8.0 17.7 0.00 0.00 0.00 72 1009.4
20260506032012 17 340 3.2 17.7 0.00 0.00 0.00 72 1009.2
20260506031522 17 360 8.0 17.7 0.00 0.00 0.00 72 1009.0
20260506031010 18 13 3.2 16.1 0.00 0.00 0.00 72 1009.0
20260506030506 18 342 6.4 16.1 0.00 0.00 0.00 71 1008.9
20260506030031 18 325 3.2 14.5 0.00 0.00 0.00 72 1008.8
20260506025507 18 352 6.4 17.7 0.00 0.00 0.00 72 1008.7
20260506025011 18 352 3.2 19.3 0.00 0.00 0.00 72 1008.8
20260506024541 18 79 6.4 19.3 0.00 0.00 0.00 71 1008.6
20260506024005 18 15 8.0 17.7 0.00 0.00 0.00 71 1008.3
20260506023506 18 360 8.0 16.1 0.00 0.00 0.00 71 1008.2
20260506023017 18 13 3.2 14.5 0.00 0.00 0.00 70 1007.9
20260506022504 18 340 6.4 16.1 0.00 0.00 0.00 70 1008.0
20260506022009 18 15 6.4 16.1 0.00 0.00 0.00 70 1007.9
20260506021522 18 5 8.0 14.5 0.00 0.00 0.00 69 1007.6
20260506021006 18 350 6.4 17.7 0.00 0.00 0.00 69 1007.5
20260506020508 19 5 6.4 16.1 0.00 0.00 0.00 69 1007.6
20260506020026 19 347 4.8 14.5 0.00 0.00 0.00 68 1007.7
20260506015507 19 345 8.0 17.7 0.00 0.00 0.00 68 1007.7
20260506015014 19 16 6.4 17.7 0.00 0.00 0.00 67 1007.5
20260506014506 20 360 4.8 14.5 0.00 0.00 0.00 68 1007.6
20260506014004 20 360 4.8 16.1 0.00 0.00 0.00 68 1007.4
20260506013504 20 5 4.8 17.7 0.00 0.00 0.00 68 1007.1
20260506013013 20 348 6.4 17.7 0.00 0.00 0.00 67 1007.1
20260506012504 20 304 3.2 16.1 0.00 0.00 0.00 67 1006.9
20260506012006 20 227 4.8 16.1 0.00 0.00 0.00 67 1006.9
20260506011518 21 360 6.4 17.7 0.00 0.00 0.00 67 1006.7
20260506011008 21 28 6.4 14.5 0.00 0.00 0.00 66 1006.6
20260506010507 21 331 6.4 17.7 0.00 0.00 0.00 66 1006.5
20260506010027 21 48 9.7 17.7 0.00 0.00 0.00 65 1006.3
20260506005506 21 360 8.0 16.1 0.00 0.00 0.00 65 1006.3
20260506005008 21 17 3.2 14.5 0.00 0.00 0.00 65 1005.9
20260506004507 21 341 6.4 14.5 0.00 0.00 0.00 64 1006.0
20260506004004 21 360 6.4 14.5 0.00 0.00 0.00 64 1006.0
20260506003504 22 340 6.4 19.3 0.00 0.00 0.00 63 1006.0
20260506003015 22 310 4.8 19.3 0.00 0.00 0.00 63 1006.0
20260506002504 22 16 9.7 19.3 0.00 0.00 0.00 62 1005.8
20260506002007 22 20 8.0 19.3 0.00 0.00 0.00 62 1005.9
20260506001518 22 323 6.4 16.1 0.00 0.00 0.00 62 1005.6
20260506001005 22 346 4.8 17.7 0.00 0.00 0.00 62 1005.7
20260506000508 22 319 6.4 17.7 0.00 0.00 0.00 61 1005.8
20260506000022 23 5 6.4 17.7 0.00 0.00 0.00 62 1005.7
20260505235507 23 317 4.8 17.7 0.00 0.00 0.00 62 1005.6
20260505235007 23 19 6.4 19.3 0.00 0.00 0.00 61 1005.7
20260505234529 23 352 6.4 19.3 0.00 0.00 0.00 60 1005.4
20260505234009 23 5 4.8 20.9 0.00 0.00 0.00 60 1005.6
20260505233504 24 14 11.3 25.7 0.00 0.00 0.00 60 1005.3
20260505233009 25 5 9.7 25.7 0.00 0.00 0.00 59 1005.4
20260505232504 25 344 9.7 24.1 0.00 0.00 0.00 58 1005.4
20260505232005 25 313 14.5 22.5 0.00 0.00 0.00 56 1005.2
20260505231515 26 296 11.3 20.9 0.00 0.00 0.00 56 1004.9
20260505231006 26 13 9.7 20.9 0.00 0.00 0.00 56 1004.9
20260505230505 26 349 8.0 17.7 0.00 0.00 0.00 55 1004.9
20260505230043 26 11 9.7 19.3 0.00 0.00 0.00 55 1005.0
20260505225511 27 9 9.7 19.3 0.00 0.00 0.00 54 1004.7
20260505225006 27 13 11.3 20.9 0.00 0.00 0.00 54 1004.8
20260505224526 28 313 8.0 20.9 0.00 0.00 0.00 55 1004.9
20260505224011 28 273 6.4 19.3 0.00 0.00 0.00 54 1004.8
20260505223512 28 352 8.0 19.3 0.00 0.00 0.00 49 1004.6
20260505223025 29 5 11.3 19.3 0.00 0.00 0.00 49 1004.5
20260505222504 30 44 6.4 16.1 0.00 0.00 0.00 48 1004.3
20260505222005 30 10 6.4 16.1 0.00 0.00 0.00 45 1004.4
20260505221512 30 344 6.4 14.5 0.00 0.00 0.00 45 1004.4
20260505221010 30 340 4.8 14.5 0.00 0.00 0.00 45 1004.3
20260505220506 30 352 8.0 16.1 0.00 0.00 0.00 43 1004.3
20260505220029 30 15 4.8 16.1 0.00 0.00 0.00 45 1004.3
20260505215507 30 360 4.8 14.5 0.00 0.00 0.00 43 1004.4
20260505215007 30 352 3.2 14.5 0.00 0.00 0.00 45 1004.4
20260505214523 30 347 4.8 14.5 0.00 0.00 0.00 45 1004.3
20260505214012 30 17 4.8 12.9 0.00 0.00 0.00 44 1004.3
20260505213510 31 347 4.8 12.9 0.00 0.00 0.00 44 1004.3
20260505213028 32 19 3.2 11.3 0.00 0.00 0.00 44 1004.4
20260505212510 32 246 1.6 6.4 0.00 0.00 0.00 45 1004.4
20260505212011 32 321 1.6 8.0 0.00 0.00 0.00 43 1004.3
20260505211530 32 178 3.2 9.7 0.00 0.00 0.00 44 1004.4
20260505211008 32 236 3.2 11.3 0.00 0.00 0.00 44 1004.5
20260505210505 32 315 3.2 16.1 0.00 0.00 0.00 46 1004.6
20260505210016 32 155 3.2 16.1 0.00 0.00 0.00 45 1004.6
20260505205506 32 245 4.8 16.1 0.00 0.00 0.00 44 1004.5
20260505205009 32 313 3.2 9.7 0.00 0.00 0.00 45 1004.7
20260505204518 32 297 3.2 11.3 0.00 0.00 0.00 45 1004.8
20260505204006 31 155 4.8 12.9 0.00 0.00 0.00 46 1004.9
20260505203507 31 281 4.8 12.9 0.00 0.00 0.00 46 1004.9
20260505203027 31 221 3.2 11.3 0.00 0.00 0.00 48 1004.9
20260505202509 31 217 6.4 11.3 0.00 0.00 0.00 48 1005.0
20260505202012 31 290 3.2 11.3 0.00 0.00 0.00 47 1005.1
20260505201526 31 224 4.8 12.9 0.00 0.00 0.00 45 1005.0
20260505201007 31 257 3.2 12.9 0.00 0.00 0.00 46 1005.1
20260505200514 31 244 3.2 12.9 0.00 0.00 0.00 50 1005.1
20260505200013 31 302 4.8 12.9 0.00 0.00 0.00 46 1005.2
20260505195503 31 217 4.8 14.5 0.00 0.00 0.00 48 1005.3
20260505195005 31 216 4.8 20.9 0.00 0.00 0.00 49 1005.3
20260505194519 31 197 9.7 19.3 0.00 0.00 0.00 48 1005.3
20260505194011 31 238 4.8 16.1 0.00 0.00 0.00 50 1005.3
20260505193506 31 254 6.4 16.1 0.00 0.00 0.00 47 1005.5
20260505193024 31 163 8.0 17.7 0.00 0.00 0.00 47 1005.4
20260505192511 31 267 4.8 17.7 0.00 0.00 0.00 49 1005.5
20260505192011 31 167 8.0 17.7 0.00 0.00 0.00 49 1005.4
20260505191527 31 232 6.4 19.3 0.00 0.00 0.00 50 1005.4
20260505191011 31 199 9.7 19.3 0.00 0.00 0.00 49 1005.5
20260505190508 31 190 8.0 17.7 0.00 0.00 0.00 49 1005.3
20260505190027 31 236 8.0 14.5 0.00 0.00 0.00 50 1005.5
20260505185508 30 195 8.0 16.1 0.00 0.00 0.00 1005.3
20260505185005 30 211 8.0 16.1 0.00 0.00 0.00 50 1005.4
20260505184516 30 191 8.0 16.1 0.00 0.00 0.00 50 1005.4
20260505184005 30 166 6.4 14.5 0.00 0.00 0.00 51 1005.4
20260505183507 30 177 6.4 19.3 0.00 0.00 0.00 51 1005.3
20260505183032 30 238 8.0 19.3 0.00 0.00 0.00 52 1005.3
20260505182509 30 203 8.0 17.7 0.00 0.00 0.00 53 1005.5
20260505182016 30 227 11.3 17.7 0.00 0.00 0.00 1005.6
20260505181523 30 223 8.0 16.1 0.00 0.00 0.00 56 1005.5
20260505181009 29 229 8.0 22.5 0.00 0.00 0.00 56 1005.6
20260505180513 29 225 8.0 20.9 0.00 0.00 0.00 56 1005.7
20260505180043 29 196 8.0 16.1 0.00 0.00 0.00 57 1005.8
20260505175511 28 167 4.8 16.1 0.00 0.00 0.00 59 1005.7
20260505175011 28 173 8.0 16.1 0.00 0.00 0.00 59 1005.8
20260505174537 28 217 6.4 19.3 0.00 0.00 0.00 60 1005.7
20260505174006 28 217 11.3 19.3 0.00 0.00 0.00 60 1005.7
20260505173506 28 181 8.0 20.9 0.00 0.00 0.00 62 1005.8
20260505173020 28 180 9.7 22.5 0.00 0.00 0.00 60 1005.8
20260505172510 28 184 6.4 24.1 0.00 0.00 0.00 62 1005.8
20260505172014 28 165 11.3 24.1 0.00 0.00 0.00 61 1005.7
20260505171529 28 196 8.0 17.7 0.00 0.00 0.00 63 1005.6
20260505171011 27 182 8.0 19.3 0.00 0.00 0.00 63 1005.8
20260505170509 27 161 8.0 19.3 0.00 0.00 0.00 64 1005.9
20260505170026 27 162 8.0 20.9 0.00 0.00 0.00 65 1005.8
20260505165506 27 171 9.7 17.7 0.00 0.00 0.00 63 1005.6
20260505165014 27 204 8.0 16.1 0.00 0.00 0.00 64 1005.6
20260505164507 27 159 4.8 20.9 0.00 0.00 0.00 65 1005.6
20260505164003 27 188 8.0 20.9 0.00 0.00 0.00 64 1005.5
20260505163500 27 184 8.0 19.3 0.00 0.00 0.00 65 1005.7
20260505163003 27 184 6.4 19.3 0.00 0.00 0.00 65 1005.6
20260505162503 27 148 9.7 17.7 0.00 0.00 0.00 65 1005.6
20260505162004 27 202 9.7 17.7 0.00 0.00 0.00 64 1005.5